EW3861 Weather Reports


Display with metric or nautical units.
time (UTC)temp
F
wind
direction
speed
MPH
gust
MPH
rain 1hr
in
rain 24hr
in
rain mn
in
humidity
%
barometer
mb
20260503211516 53 341 0.0 0.0 0.00 0.00 0.00 43 1005.6
20260503210106 53 302 0.0 0.0 0.00 0.00 0.00 40 1005.3
20260503204545 53 306 0.0 0.0 0.00 0.00 0.00 42 1005.1
20260503203012 53 313 0.0 0.0 0.00 0.00 0.00 43 1005.1
20260503201601 54 130 0.0 0.0 0.00 0.00 0.00 42 1004.9
20260503200018 53 98 0.0 0.0 0.00 0.00 0.00 43 1005.0
20260503194505 53 298 0.0 0.0 0.00 0.00 0.00 44 1005.0
20260503193114 52 45 0.0 0.0 0.00 0.00 0.00 47 1004.8
20260503191514 52 319 0.0 0.0 0.00 0.00 0.00 51 1005.0
20260503190107 52 311 0.0 0.0 0.00 0.00 0.00 49 1005.1
20260503184528 52 120 0.0 0.0 0.00 0.00 0.00 50 1004.9
20260503183122 51 46 0.0 0.0 0.00 0.00 0.00 52 1005.0
20260503181554 51 321 0.0 0.0 0.00 0.00 0.00 52 1005.0
20260503180016 51 90 0.0 0.0 0.00 0.00 0.00 51 1005.1
20260503174622 52 313 0.0 0.0 0.00 0.00 0.00 51 1005.0
20260503173052 51 84 0.0 0.0 0.00 0.00 0.00 53 1004.8
20260503171503 49 83 0.0 0.0 0.00 0.00 0.00 57 1005.0
20260503120105 44 344 0.0 0.0 0.00 0.00 0.00 76 1005.3
20260503110111 43 294 0.0 0.0 0.00 0.00 0.00 78 1005.7
20260503090110 45 174 0.0 0.0 0.00 0.00 0.00 80 1006.1
20260503081547 45 81 0.0 0.0 0.00 0.00 0.00 79 1006.2
20260503071511 46 94 0.0 0.0 0.00 0.00 0.00 76 1006.8
20260503070118 46 289 0.0 0.0 0.00 0.00 0.00 76 1007.0
20260503054612 46 303 0.0 0.0 0.00 0.00 0.00 77 1008.0
20260503053034 47 55 0.0 0.0 0.00 0.00 0.00 83 1008.1
20260503051525 47 55 0.0 0.0 0.00 0.00 0.00 88 1008.1
20260503050110 47 55 0.0 0.0 0.00 0.00 0.00 91 1008.1
20260503044541 48 226 0.0 0.0 0.00 0.00 0.00 92 1008.4
20260503043007 48 226 0.0 0.0 0.00 0.00 0.00 92 1008.5
20260503041558 48 226 0.0 0.0 0.00 0.00 0.00 92 1008.8
20260503040002 48 226 0.0 0.0 0.00 0.00 0.00 92 1009.0
20260503034612 48 226 0.0 0.0 0.00 0.00 0.00 91 1008.9
20260503033025 48 226 0.0 0.0 0.00 0.00 0.00 91 1008.9
20260503031613 48 226 0.0 0.0 0.00 0.00 0.00 90 1009.1
20260503030028 48 226 0.0 0.0 0.00 0.00 0.00 90 1009.1
20260503024633 48 226 0.0 0.0 0.00 0.00 0.00 90 1009.1
20260503023058 49 226 0.0 0.0 0.00 0.00 0.00 89 1009.1
20260503021505 49 226 0.0 0.0 0.00 0.00 0.00 89 1009.0
20260503020059 49 226 0.0 0.0 0.00 0.00 0.00 89 1009.2
20260503014510 49 226 0.0 0.0 0.00 0.00 0.00 89 1009.4
20260503013104 49 226 0.0 0.0 0.00 0.00 0.00 88 1009.5
20260503011514 49 226 0.0 0.0 0.00 0.00 0.00 88 1009.4
20260503010124 49 226 0.0 0.0 0.00 0.00 0.00 87 1009.4
20260503004512 50 225 0.0 0.0 0.00 0.00 0.00 87 1009.4
20260503003113 50 225 0.0 0.0 0.00 0.00 0.00 86 1009.2
20260503001519 50 225 0.0 0.0 0.00 0.00 0.00 86 1009.2
20260503000003 50 225 0.0 0.0 0.00 0.00 0.00 86 1009.1
20260502234549 50 225 0.0 0.0 0.00 0.00 0.00 85 1009.2
20260502233015 50 225 0.0 0.0 0.00 0.00 0.00 85 1009.3
20260502231600 51 225 0.0 0.0 0.00 0.00 0.00 84 1009.3
20260502230026 51 224 0.0 0.0 0.00 0.00 0.00 84 1009.3
20260502224633 51 224 0.0 0.0 0.00 0.00 0.00 83 1009.2
20260502223053 51 224 0.0 0.0 0.00 0.00 0.00 82 1009.1
20260502221514 51 224 0.0 0.0 0.00 0.00 0.00 81 1009.0
20260502220109 52 213 0.0 0.0 0.00 0.00 0.00 80 1009.1
20260502214605 52 246 0.0 0.0 0.00 0.00 0.00 80 1009.0
20260502213010 52 211 0.0 0.0 0.00 0.00 0.00 81 1009.0